Starlink 33683

operational
NORAD ID: 63573 Int'l Des: 2025-076 Owner: SPXS Country: US Constellation: starlink
LEOCIRCULAR

About Starlink 33683

Description loading...

Live Position

Loading 3D Globe...

Upcoming Passes

Altitude History

Altitude vs Time

uPlot chart will show altitude changes over time

Two-Line Element Set

1 63573U 25076E 25351.60958183 .00022181 00000-0 81246-3 0 9998
2 63573 43.0046 65.5635 0001869 286.4820 73.5827 15.27607519 39273
Epoch: Dec 17, 2025 • Age: 18 hours

Current Status

Altitude 484.9 km
Velocity 7.63 km/s
Sub-Earth Point 34.19°N, 101.31°W
Launch Date Apr 14, 2025
Age 0.6 years
Type internet

Technical Details

Classification Payload
Mass 575.00 kg
Dry Mass 530.00 kg
Total Mass 575.00 kg
Length 0.30 m
Diameter 4.10 m
Span 29.00 m
Shape Box + pan
Manufacturer SPXS
Bus Type Starlink V2MO
Phase Status In Orbit
Owner/State SPXS/US

Large Constellations

Loading constellations...